YAMAL 300K

Last updated on Sun Apr 12 2026 00:02:53 GMT+0000 (Coordinated Universal Time)

1 38978U 12061B 26100.80924869 .00000073 00000+0 00000+0 0 9998 2 38978 0.0110 218.8280 0000400 61.0303 33.4651 1.00271585 48952
UTC large
Height (km)
Speed (km/s)
/
Latitude / Longitude
Inclination (degrees)
Orbital Period (minutes)
Azimuth
Elevation
Range (km)
Doppler Factor

Next 0 passes for location: London (51.5072 / 0.1276)

Sorry there are no passes over London.
YAMAL 300K